Rosemead Past Weather

Last 30 Days

High: 57ºf @12:57 AM    Low: 57ºf @12:57 AM     Approx. Precipitation / Rain Total: in.
Time (PDT)Temp. (ºf)Humidity (%)Dew Point (ºf)Barometer (inHG)Wind Speed (mph)Wind DirectionWind Gust (mph)1hr. Precip / Rain Total (in.)Snow Depth
12:57 AM578050.89-1.74sw3.48--
High: 69ºf @2:57 PM    Low: 53ºf @12:57 AM     Approx. Precipitation / Rain Total: in.
Time (PDT)Temp. (ºf)Humidity (%)Dew Point (ºf)Barometer (inHG)Wind Speed (mph)Wind DirectionWind Gust (mph)1hr. Precip / Rain Total (in.)Snow Depth
11:57 PM577950.55-2.61sw6.08--
10:57 PM577649.51-3.48sw6.95--
9:57 PM587349.39-0.87ssw7.82--
8:57 PM587048.27-4.34sw9.56--
7:57 PM606949.8-4.34w11.3--
6:57 PM626550.1-6.95wsw11.3--
5:57 PM645848.92-6.08ssw11.3--
4:57 PM675550.29-6.08wsw11.3--
3:57 PM685450.72-6.08w11.3--
2:57 PM695250.63-5.21sw13.03--
1:57 PM675449.8-5.21sw20.86--
12:57 PM694848.48-4.34sw9.56--
11:57 AM685249.71-2.61sw7.82--
10:57 AM665549.36-2.61ssw6.95--
9:57 AM636350.2-3.48nw5.21--
8:57 AM626650.51---4.34--
7:57 AM587750.83-2.61wsw4.34--
6:57 AM578050.89-0.87w3.48--
5:57 AM558751.2-1.74wnw2.61--
4:57 AM568551.55---0.87--
3:57 AM558149.28-0.87ne4.34--
2:57 AM558249.61-1.74ne3.48--
1:57 AM548549.59---3.48--
12:57 AM538749.23---1.74--
High: 67ºf @2:57 PM    Low: 51ºf @11:57 PM     Approx. Precipitation / Rain Total: in.
Time (PDT)Temp. (ºf)Humidity (%)Dew Point (ºf)Barometer (inHG)Wind Speed (mph)Wind DirectionWind Gust (mph)1hr. Precip / Rain Total (in.)Snow Depth
11:57 PM519148.47-0.87ne4.34--
10:57 PM528447.32-2.61w4.34--
9:57 PM538147.33-3.48w5.21--
8:57 PM577549.15-3.48wsw9.56--
7:57 PM607050.18-4.34wsw8.69--
6:57 PM656050.77-4.34wsw6.95--
5:57 PM675851.73-2.61wnw8.69--
4:57 PM675751.26-2.61sw7.82--
3:57 PM676052.65-4.34w8.69--
2:57 PM676052.65-4.34w6.95--
1:57 PM666353.04-0.87w6.95--
12:57 PM666353.04-3.48wsw6.95--
11:57 AM666654.31-2.61nw6.95--
10:57 AM637655.31-4.34nw6.95--
9:57 AM618054.78-1.74w5.21--
8:57 AM608856.43---2.61--
7:57 AM579555.58---4.34--
6:57 AM579655.87-2.61wnw4.34--
5:57 AM579655.87-1.74nw4.34--
4:57 AM579655.87-2.61nw5.21--
3:57 AM579354.99-2.61wnw4.34--
2:57 AM588954.77-1.74wsw3.48--
1:57 AM588854.46-0.87ssw6.08--
12:57 AM588954.77-2.61ssw6.08--
High: 73ºf @2:57 PM    Low: 58ºf @2:57 AM     Approx. Precipitation / Rain Total: in.
Time (PDT)Temp. (ºf)Humidity (%)Dew Point (ºf)Barometer (inHG)Wind Speed (mph)Wind DirectionWind Gust (mph)1hr. Precip / Rain Total (in.)Snow Depth
11:57 PM598654.82-3.48sw5.21--
10:57 PM598755.13-2.61wsw6.08--
9:57 PM598654.82-2.61sw8.69--
8:57 PM608555.47-4.34wsw8.69--
7:57 PM608254.49-4.34sw9.56--
6:57 PM617954.44-5.21wsw11.3--
5:57 PM666955.53-7.82sw13.03--
4:57 PM706256.37-7.82wsw14.77--
3:57 PM725956.87-6.95wsw12.17--
2:57 PM735957.81-6.95wsw12.17--
1:57 PM735957.81-5.21wsw11.3--
12:57 PM716357.76-5.21sw8.69--
11:57 AM686957.44-4.34wsw9.56--
10:57 AM687057.84-3.48s8.69--
9:57 AM657556.88-1.74s5.21--
8:57 AM628156.1-1.74s6.08--
7:57 AM598353.84-1.74ne4.34--
6:57 AM588754.15-2.61n5.21--
5:57 AM588954.77-2.61ne5.21--
4:57 AM599056.07---2.61--
3:57 AM599056.07---2.61--
2:57 AM589355.99-0.87ssw2.61--
1:57 AM599056.07-0.87w2.61--
12:57 AM599056.07-0.87ssw3.48--
High: 82ºf @1:57 PM    Low: 50ºf @3:57 AM     Approx. Precipitation / Rain Total: in.
Time (PDT)Temp. (ºf)Humidity (%)Dew Point (ºf)Barometer (inHG)Wind Speed (mph)Wind DirectionWind Gust (mph)1hr. Precip / Rain Total (in.)Snow Depth
11:57 PM598955.76-0.87sw4.34--
10:57 PM598855.45-2.61sw5.21--
9:57 PM599156.37-0.87wsw4.34--
8:57 PM598855.45-2.61sw7.82--
7:57 PM627855.06-4.34wsw9.56--
6:57 PM686555.79-5.21wsw9.56--
5:57 PM735455.36-6.08sw11.3--
4:57 PM784856.7-6.08wsw11.3--
3:57 PM804556.73-6.08wsw11.3--
2:57 PM814457.01-5.21wsw11.3--
1:57 PM824457.91-4.34wsw10.43--
12:57 PM794757.02-5.21sw9.56--
11:57 AM774956.36-3.48sw8.69--
10:57 AM735756.85-2.61w6.08--
9:57 AM696456.3-1.74wsw5.21--
8:57 AM637755.67-1.74wnw4.34--
7:57 AM579956.72---1.74--
6:57 AM5110051---0.87--
5:57 AM5010050---0.87--
4:57 AM5010050---1.74--
3:57 AM509949.73---0.87--
2:57 AM519950.73------
1:57 AM529851.45---2.61--
12:57 AM549552.6-0.87wsw2.61--
High: 75ºf @4:57 PM    Low: 54ºf @12:57 AM     Approx. Precipitation / Rain Total: in.
Time (PDT)Temp. (ºf)Humidity (%)Dew Point (ºf)Barometer (inHG)Wind Speed (mph)Wind DirectionWind Gust (mph)1hr. Precip / Rain Total (in.)Snow Depth
11:57 PM559252.72-1.74sw3.48--
10:57 PM559152.42-0.87sw3.48--
9:57 PM568752.18-1.74sw3.48--
8:57 PM598153.17-2.61wsw5.21--
7:57 PM627353.24-2.61sw6.95--
6:57 PM676052.65-5.21wsw9.56--
5:57 PM725253.4-6.08sw10.43--
4:57 PM755055.08-2.61wsw6.95--
3:57 PM735254.32-2.61sse11.3--
2:57 PM725554.94-2.61ssw10.43--
1:57 PM705955-2.61ssw6.95--
12:57 PM666553.89-2.61wsw6.08--
11:57 AM637253.83-1.74wsw6.95--
10:57 AM617553.02-2.61sw5.21--
9:57 AM598052.84-1.74wnw3.48--
8:57 AM588252.53-0.87nw5.21--
7:57 AM578452.21-0.87ne4.34--
6:57 AM568551.55---4.34--
5:57 AM568651.87-1.74w5.21--
4:57 AM568651.87-3.48nne6.08--
3:57 AM568551.55---2.61--
2:57 AM568852.49-0.87sw3.48--
1:57 AM559152.42-1.74wsw2.61--
12:57 AM549452.31-0.87sw2.61--
High: 74ºf @3:57 PM    Low: 53ºf @11:57 PM     Approx. Precipitation / Rain Total: in.
Time (PDT)Temp. (ºf)Humidity (%)Dew Point (ºf)Barometer (inHG)Wind Speed (mph)Wind DirectionWind Gust (mph)1hr. Precip / Rain Total (in.)Snow Depth
11:57 PM539351.03-1.74sw3.48--
10:57 PM548950.83-1.74sw3.48--
9:57 PM558650.89-2.61wsw6.08--
8:57 PM587951.52-2.61wsw7.82--
7:57 PM597751.8-3.48wsw7.82--
6:57 PM646652.41-5.21wsw13.03--
5:57 PM695652.64-6.08wsw12.17--
4:57 PM724951.78-6.08sw13.03--
3:57 PM744651.89-4.34wsw10.43--
2:57 PM724951.78-5.21sw10.43--
1:57 PM705553.08-3.48sw9.56--
12:57 PM685651.71-3.48w7.82--
11:57 AM646451.57-1.74sw10.43--
10:57 AM617251.9-3.48sw6.95--
9:57 AM597852.15-2.61wsw5.21--
8:57 AM587851.18---3.48--
7:57 AM578050.89-0.87ene4.34--
6:57 AM578351.89---3.48--
5:57 AM568551.55-0.87sw4.34--
4:57 AM568551.55-0.87ene3.48--
3:57 AM568752.18-0.87wsw5.21--
2:57 AM578853.48---4.34--
1:57 AM568852.49-2.61w5.21--
12:57 AM569153.41-1.74wsw3.48--
High: 78ºf @3:57 PM    Low: 53ºf @4:57 AM     Approx. Precipitation / Rain Total: in.
Time (PDT)Temp. (ºf)Humidity (%)Dew Point (ºf)Barometer (inHG)Wind Speed (mph)Wind DirectionWind Gust (mph)1hr. Precip / Rain Total (in.)Snow Depth
11:57 PM549552.6-2.61w6.08--
10:57 PM559353.01-3.48w6.08--
9:57 PM578552.53-0.87w5.21--
8:57 PM597751.8-2.61sw6.95--
7:57 PM627152.48-5.21wsw8.69--
6:57 PM685852.66-4.34wsw10.43--
5:57 PM725052.33-6.08sw11.3--
4:57 PM764553.11-6.08sw11.3--
3:57 PM783951.01-4.34sw11.3--
2:57 PM774151.48-6.08sw12.17--
1:57 PM783548.11-5.21sw10.43--
12:57 PM763949.24-6.08wsw14.77--
11:57 AM744752.47-1.74sse6.08--
10:57 AM696255.43-1.74ene6.95--
9:57 AM617954.44-1.74s5.21--
8:57 AM579054.09---4.34--
7:57 AM569755.16-0.87sse6.95--
6:57 AM5410054-4.34wsw6.95--
5:57 AM539852.45-2.61w4.34--
4:57 AM539651.89-2.61wsw3.48--
3:57 AM549251.73-1.74w3.48--
2:57 AM558751.2-1.74w6.08--
1:57 AM558550.57-3.48wnw4.34--
12:57 AM558751.2---3.48--
High: 83ºf @2:57 PM    Low: 51ºf @6:57 AM     Approx. Precipitation / Rain Total: in.
Time (PDT)Temp. (ºf)Humidity (%)Dew Point (ºf)Barometer (inHG)Wind Speed (mph)Wind DirectionWind Gust (mph)1hr. Precip / Rain Total (in.)Snow Depth
11:57 PM587550.12-2.61nw3.48--
9:57 PM616047.01---2.61--
8:57 PM625746.59-0.87sse3.48--
7:57 PM644944.45-2.61wsw6.08--
6:57 PM703541.08-4.34wsw8.69--
5:57 PM753142.3-6.95sw11.3--
4:57 PM772942.29-6.08wsw13.9--
3:57 PM803549.86-6.95wsw13.9--
2:57 PM833048.34-6.08wsw11.3--
1:57 PM822946.58-4.34ssw8.69--
12:57 PM813248.34-4.34wsw9.56--
11:57 AM783245.73-4.34sw7.82--
10:57 AM753746.94-1.74sw7.82--
9:57 AM724650.07-1.74s5.21--
8:57 AM685249.71-0.87sse3.48--
7:57 AM635948.44-0.87nne2.61--
6:57 AM519549.62---1.74--
5:57 AM519248.76---2.61--
4:57 AM529149.45---4.34--
3:57 AM538849.54-0.87ne4.34--
2:57 AM539351.03---2.61--
1:57 AM529650.89---0.87--
12:57 AM548750.22---2.61--
High: 84ºf @3:57 PM    Low: 50ºf @1:57 AM     Approx. Precipitation / Rain Total: in.
Time (PDT)Temp. (ºf)Humidity (%)Dew Point (ºf)Barometer (inHG)Wind Speed (mph)Wind DirectionWind Gust (mph)1hr. Precip / Rain Total (in.)Snow Depth
11:57 PM558951.82---1.74--
10:57 PM587349.39-0.87wnw3.48--
9:57 PM607050.18---3.48--
8:57 PM616247.88---3.48--
7:57 PM654844.83-2.61sw6.08--
6:57 PM733845.88-1.74sw10.43--
5:57 PM763344.8-6.08sw14.77--
4:57 PM803146.62-8.69wsw14.77--
3:57 PM842948.29-8.69wsw14.77--
2:57 PM842342.19-5.21sw10.43--
1:57 PM822542.68-4.34sw9.56--
12:57 PM792843.09-4.34sw7.82--
11:57 AM773547.23-2.61wnw6.95--
10:57 AM744048.13-1.74w5.21--
9:57 AM704044.56-1.74se4.34--
8:57 AM645346.52-2.61w8.69--
7:57 AM605443.3-4.34nne12.17--
6:57 AM527945.69---6.95--
5:57 AM527142.89-2.61ne6.08--
4:57 AM508244.72-0.87ne4.34--
3:57 AM518446.34-1.74ene3.48--
2:57 AM518747.27-0.87ese3.48--
1:57 AM509247.77---2.61--
12:57 AM519549.62-0.87ese2.61--
High: 71ºf @4:57 PM    Low: 48ºf @5:57 AM     Approx. Precipitation / Rain Total: in.
Time (PDT)Temp. (ºf)Humidity (%)Dew Point (ºf)Barometer (inHG)Wind Speed (mph)Wind DirectionWind Gust (mph)1hr. Precip / Rain Total (in.)Snow Depth
11:57 PM519349.05---2.61--
10:57 PM538648.92-0.87nne4.34--
9:57 PM528246.68---2.61--
8:57 PM566945.97-2.61wsw6.08--
7:57 PM595944.69-4.34wsw7.82--
6:57 PM655347.45-4.34wsw10.43--
5:57 PM694949.03-6.95sw10.43--
4:57 PM714347.36-2.61sw8.69--
3:57 PM714447.98-4.34sw9.56--
2:57 PM704547.67-3.48w7.82--
1:57 PM684545.86-2.61sse13.03--
12:57 PM664946.28-2.61ese7.82--
11:57 AM655347.45-1.74w8.69--
10:57 AM615946.57-3.48s10.43--
9:57 AM616047.01-2.61sse7.82--
8:57 AM586546.3-0.87ene8.69--
7:57 AM517443.01-5.21ne10.43--
6:57 AM498043.1-4.34ne9.56--
5:57 AM488142.45-5.21ne11.3--
4:57 AM488543.71-4.34ne10.43--
3:57 AM498444.38-4.34ne9.56--
2:57 AM508746.28-3.48nne6.08--
1:57 AM509448.34---3.48--
12:57 AM519850.45-0.87s2.61--
High: 57ºf @10:57 AM    Low: 44ºf @3:57 AM     Approx. Precipitation / Rain Total: in.
Time (PDT)Temp. (ºf)Humidity (%)Dew Point (ºf)Barometer (inHG)Wind Speed (mph)Wind DirectionWind Gust (mph)1hr. Precip / Rain Total (in.)Snow Depth
11:57 PM519750.18-0.87sw3.48--
10:57 PM519750.18-1.74s3.48--
9:57 PM529751.17---4.34--
8:57 PM529650.89-1.74nne4.34--
7:57 PM529751.17-2.61nne4.34--
6:57 PM539451.32-0.87nnw2.61--
5:57 PM539651.89---5.21--
4:57 PM529650.89-1.74w6.95--
3:57 PM539451.32-1.74ne4.34--
2:57 PM549251.73-1.74ne5.21--
1:57 PM549151.43-0.87nne5.21--
12:57 PM549051.13-2.61wnw6.08--
11:57 AM567347.47-2.61wsw6.95--
10:57 AM576746.15-2.61e6.08--
9:57 AM556945.02-1.74se6.95--
8:57 AM527443.97-2.61ene7.82--
7:57 AM497942.77-1.74ene5.21--
6:57 AM488343.09-1.74ene6.08--
5:57 AM469344.09-1.74ene7.82--
4:57 AM459443.38-3.48ene6.08--
3:57 AM449843.47-1.74n2.61--
2:57 AM469945.73------
1:57 AM4710047---1.74--
12:57 AM469945.73-1.74wsw3.48--
High: 65ºf @11:57 AM    Low: 46ºf @11:57 PM     Approx. Precipitation / Rain Total: in.
Time (PDT)Temp. (ºf)Humidity (%)Dew Point (ºf)Barometer (inHG)Wind Speed (mph)Wind DirectionWind Gust (mph)1hr. Precip / Rain Total (in.)Snow Depth
11:57 PM469845.47-0.87w6.08--
10:57 PM479846.46-4.34w6.08--
9:57 PM499547.63-3.48sw9.56--
8:57 PM509448.34-3.48e9.56--
7:57 PM508746.28-4.34w19.12--
6:57 PM519449.33-12.17w20.86--
5:57 PM559052.12-1.74sw12.17--
4:57 PM586947.89-7.82sse16.51--
3:57 PM615846.11-6.95s15.64--
2:57 PM625244.17-3.48sse13.9--
1:57 PM644642.8-5.21s13.03--
12:57 PM644542.23-6.08se13.03--
11:57 AM654341.95-4.34e13.9--
10:57 AM634943.53-5.21ese11.3--
9:57 AM605845.18-3.48sse10.43--
8:57 AM605543.78-3.48ene9.56--
7:57 AM586144.63-3.48ne6.08--
6:57 AM567247.1-2.61ne6.95--
5:57 AM567046.35-2.61ene6.08--
4:57 AM567447.83-1.74e5.21--
3:57 AM557647.57-0.87ese3.48--
2:57 AM567648.54-0.87ene4.34--
1:57 AM567447.83-0.87ese2.61--
12:57 AM577147.69---5.21--
High: 62ºf @2:57 PM    Low: 53ºf @12:57 AM     Approx. Precipitation / Rain Total: in.
Time (PDT)Temp. (ºf)Humidity (%)Dew Point (ºf)Barometer (inHG)Wind Speed (mph)Wind DirectionWind Gust (mph)1hr. Precip / Rain Total (in.)Snow Depth
11:57 PM577348.43-1.74se3.48--
10:57 PM577348.43-2.61ssw5.21--
9:57 PM577549.15-1.74s3.48--
8:57 PM587951.52---4.34--
7:57 PM587650.48-0.87se3.48--
6:57 PM597450.72-0.87ssw5.21--
5:57 PM597450.72-2.61ssw6.08--
4:57 PM597551.08-3.48s7.82--
3:57 PM607250.94-4.34s7.82--
2:57 PM626851.31-1.74wsw6.08--
1:57 PM597651.44-3.48s8.69--
12:57 PM597852.15-4.34s7.82--
11:57 AM598153.17-5.21ssw7.82--
10:57 AM588352.86-1.74w5.21--
9:57 AM578753.17-1.74wnw6.08--
8:57 AM559152.42-3.48wsw6.95--
7:57 AM568752.18-0.87ese6.08--
6:57 AM559052.12-1.74sse5.21--
5:57 AM549352.02---1.74--
4:57 AM549352.02---3.48--
3:57 AM549352.02-0.87sw4.34--
2:57 AM549452.31-1.74wsw5.21--
1:57 AM549753.17-2.61w5.21--
12:57 AM539651.89-3.48w6.95--
High: 88ºf @1:57 PM    Low: 49ºf @5:57 AM     Approx. Precipitation / Rain Total: in.
Time (PDT)Temp. (ºf)Humidity (%)Dew Point (ºf)Barometer (inHG)Wind Speed (mph)Wind DirectionWind Gust (mph)1hr. Precip / Rain Total (in.)Snow Depth
11:57 PM548750.22-3.48w5.21--
10:57 PM568250.58-2.61w4.34--
9:57 PM587650.48-2.61sw6.95--
8:57 PM616950.75-4.34w6.95--
7:57 PM655849.86-2.61sw4.34--
3:57 PM833451.71-6.08wsw13.9--
2:57 PM873051.78-6.95wsw12.17--
1:57 PM882244.35-6.08wsw10.43--
12:57 PM872243.52-3.48sw6.95--
10:57 AM793347.42-3.48wsw6.08--
8:57 AM685249.71-2.61sse3.48--
7:57 AM616950.75---1.74--
6:57 AM509348.06---1.74--
5:57 AM499046.2---1.74--
4:57 AM519248.76---2.61--
3:57 AM538047---3.48--
2:57 AM528347---2.61--
1:57 AM548148.3-0.87ne1.74--
12:57 AM548047.97---2.61--
High: 86ºf @3:57 PM    Low: 56ºf @11:57 PM     Approx. Precipitation / Rain Total: in.
Time (PDT)Temp. (ºf)Humidity (%)Dew Point (ºf)Barometer (inHG)Wind Speed (mph)Wind DirectionWind Gust (mph)1hr. Precip / Rain Total (in.)Snow Depth
11:57 PM567247.1-2.61nw3.48--
10:57 PM596446.84-1.74wsw3.48--
9:57 PM625545.64-3.48ssw3.48--
8:57 PM654945.37-2.61ssw3.48--
7:57 PM694244.94-3.48sw5.21--
6:57 PM773144.03-2.61wsw9.56--
5:57 PM812541.84-6.08wsw11.3--
4:57 PM842645.4-6.08sw12.17--
3:57 PM862546.05-6.08sw13.03--
2:57 PM861938.91-6.08wsw10.43--
1:57 PM841734.48-5.21sw9.56--
12:57 PM831936.47-4.34wsw9.56--
11:57 AM811934.84-4.34w8.69--
10:57 AM792439.11-2.61sw7.82--
9:57 AM732535.09-2.61sse5.21--
8:57 AM683237.03-1.74sse4.34--
7:57 AM643435.07-2.61ene10.43--
6:57 AM593833.43-5.21nne13.03--
5:57 AM603632.97-4.34ne14.77--
4:57 AM613432.43-4.34ene14.77--
3:57 AM623433.31-5.21ne12.17--
2:57 AM623433.31-6.95nne11.3--
1:57 AM633333.44-5.21ne13.9--
12:57 AM633534.92-6.08ne13.03--
High: 83ºf @3:57 PM    Low: 50ºf @6:57 AM     Approx. Precipitation / Rain Total: in.
Time (PDT)Temp. (ºf)Humidity (%)Dew Point (ºf)Barometer (inHG)Wind Speed (mph)Wind DirectionWind Gust (mph)1hr. Precip / Rain Total (in.)Snow Depth
11:57 PM633635.62-6.95nne11.3--
10:57 PM653536.68-6.08nne10.43--
9:57 PM663336.07-5.21ne12.17--
8:57 PM643636.51-2.61ne6.95--
7:57 PM643837.88---4.34--
6:57 PM742232.73-2.61sw9.56--
5:57 PM781729.65-5.21w13.03--
4:57 PM801731.26-6.95wsw14.77--
3:57 PM831428.88-6.95w14.77--
2:57 PM831327.08-4.34sw10.43--
1:57 PM811325.52-4.34wsw12.17--
12:57 PM801629.77-6.08w13.03--
11:57 AM771728.84-5.21wsw9.56--
10:57 AM751929.94-3.48sw7.82--
9:57 AM732130.75-0.87wnw6.08--
8:57 AM673135.36-1.74w6.08--
7:57 AM604136.23-0.87nne4.34--
6:57 AM505634.93-1.74n7.82--
5:57 AM515033.02-1.74ne8.69--
4:57 AM563528.74-6.08ne14.77--
3:57 AM563528.74-8.69nne13.03--
2:57 AM573630.31-6.08nne12.17--
1:57 AM573831.65-3.48ne10.43--
12:57 AM583832.54-3.48ne12.17--
High: 76ºf @3:57 PM    Low: 45ºf @5:57 AM     Approx. Precipitation / Rain Total: in.
Time (PDT)Temp. (ºf)Humidity (%)Dew Point (ºf)Barometer (inHG)Wind Speed (mph)Wind DirectionWind Gust (mph)1hr. Precip / Rain Total (in.)Snow Depth
11:57 PM584436.21-5.21nne10.43--
10:57 PM584637.34-2.61ene6.95--
9:57 PM594437.12-2.61ne6.95--
8:57 PM624037.4-2.61ene6.95--
7:57 PM624640.98-0.87ne5.21--
6:57 PM693439.45-2.61w9.56--
5:57 PM722736.18-4.34sw13.9--
4:57 PM752637.78-6.95ssw13.03--
3:57 PM762537.62-5.21sw10.43--
2:57 PM743141.43-4.34sw9.56--
1:57 PM703742.52-4.34wsw9.56--
12:57 PM674243.14-3.48w7.82--
11:57 AM635144.58-1.74wnw5.21--
10:57 AM615343.74-2.61wsw6.95--
9:57 AM595643.32-3.48s6.08--
8:57 AM566644.8-2.61sse5.21--
7:57 AM527042.52-0.87nne3.48--
6:57 AM458239.84---7.82--
5:57 AM458340.15-0.87ene4.34--
4:57 AM477840.5-1.74ene6.95--
3:57 AM467939.86-2.61nne9.56--
2:57 AM487440.11-4.34nne8.69--
1:57 AM497340.73-3.48ne9.56--
12:57 AM507442.04-4.34ne7.82--
High: 70ºf @2:57 PM    Low: 45ºf @4:57 AM     Approx. Precipitation / Rain Total: in.
Time (PDT)Temp. (ºf)Humidity (%)Dew Point (ºf)Barometer (inHG)Wind Speed (mph)Wind DirectionWind Gust (mph)1hr. Precip / Rain Total (in.)Snow Depth
11:57 PM507442.04-1.74ne6.95--
10:57 PM507341.69-0.87nne6.08--
9:57 PM487540.46---3.48--
8:57 PM526440.2-1.74ssw5.21--
7:57 PM555740.05-2.61ssw6.95--
6:57 PM605141.82-4.34wsw13.03--
5:57 PM644341.05-6.95wsw13.03--
4:57 PM683640.04-5.21sw12.17--
3:57 PM693439.45-6.95sw13.03--
2:57 PM702128.27-4.34sw10.43--
1:57 PM692531.71-5.21w10.43--
12:57 PM682833.67-3.48ssw8.69--
11:57 AM653234.42-3.48wsw7.82--
10:57 AM634239.54-1.74s6.08--
9:57 AM614640.07-2.61ese5.21--
8:57 AM574837.51-1.74e5.21--
7:57 AM524933.44-3.48nne6.95--
6:57 AM466534.9-1.74ene12.17--
5:57 AM485733.5-3.48ne8.69--
4:57 AM457035.81---6.08--
3:57 AM486235.61-1.74ene8.69--
2:57 AM476937.36-2.61ne6.95--
1:57 AM506438.31-3.48ene7.82--
12:57 AM506639.09-1.74ne8.69--
High: 68ºf @3:57 PM    Low: 43ºf @5:57 AM     Approx. Precipitation / Rain Total: in.
Time (PDT)Temp. (ºf)Humidity (%)Dew Point (ºf)Barometer (inHG)Wind Speed (mph)Wind DirectionWind Gust (mph)1hr. Precip / Rain Total (in.)Snow Depth
11:57 PM506839.86-4.34nne6.08--
10:57 PM497140.01-2.61nne5.21--
9:57 PM497240.37-1.74nne2.61--
8:57 PM506337.91-1.74wnw4.34--
7:57 PM535436.8-2.61w8.69--
6:57 PM584536.78-6.08wsw11.3--
5:57 PM633836.99-6.95wsw15.64--
4:57 PM663436.82-7.82wsw13.9--
3:57 PM682732.77-4.34w12.17--
2:57 PM672731.91-4.34wnw10.43--
1:57 PM662932.83-2.61w10.43--
12:57 PM643233.55-3.48sse9.56--
11:57 AM613835.21-4.34sse12.17--
10:57 AM604035.61-3.48ese9.56--
9:57 AM594638.25-2.61ese7.82--
8:57 AM534934.36-3.48ne11.3--
7:57 AM475732.57-5.21ne12.17--
6:57 AM446533-6.08ne15.64--
5:57 AM436833.17-8.69ne14.77--
4:57 AM446934.49-6.95ne12.17--
3:57 AM447135.21-6.95ne13.9--
2:57 AM447335.91-6.95ne13.03--
1:57 AM447536.59-6.08ne13.03--
12:57 AM457537.56-4.34ne11.3--
High: 59ºf @3:57 PM    Low: 43ºf @4:57 AM     Approx. Precipitation / Rain Total: in.
Time (PDT)Temp. (ºf)Humidity (%)Dew Point (ºf)Barometer (inHG)Wind Speed (mph)Wind DirectionWind Gust (mph)1hr. Precip / Rain Total (in.)Snow Depth
11:57 PM457738.23-4.34ne9.56--
10:57 PM458039.21-3.48ene8.69--
9:57 PM467739.2-1.74ene7.82--
8:57 PM487239.41-2.61n11.3--
7:57 PM506739.48-6.95wsw17.38--
6:57 PM526138.97-9.56wsw18.25--
5:57 PM535939.06-9.56wsw19.99--
4:57 PM575038.55-10.43wsw21.72--
3:57 PM594437.12-11.3wsw22.59--
2:57 PM594839.34-10.43wsw19.12--
1:57 PM575741.92-4.34w12.17--
12:57 PM566042.31-4.34wsw11.3--
11:57 AM546843.68-2.61ssw8.69--
10:57 AM536842.72-2.61sse8.69--
9:57 AM507843.41-4.34ene8.69--
8:57 AM478542.73-2.61ene5.21--
7:57 AM468742.35-2.61ne6.95--
6:57 AM449342.11-0.87nne4.34--
5:57 AM449141.54-1.74ese6.95--
4:57 AM439341.12-0.87e14.77--
3:57 AM467739.2-2.61ne6.08--
2:57 AM467538.53-2.61n6.08--
1:57 AM457738.23-1.74ne4.34--
12:57 AM438538.8-0.87nnw4.34--
High: 65ºf @12:57 PM    Low: 47ºf @10:57 PM     Approx. Precipitation / Rain Total: in.
Time (PDT)Temp. (ºf)Humidity (%)Dew Point (ºf)Barometer (inHG)Wind Speed (mph)Wind DirectionWind Gust (mph)1hr. Precip / Rain Total (in.)Snow Depth
11:57 PM486737.57-1.74w2.61--
10:57 PM477338.8-0.87wnw4.34--
9:57 PM496838.9-2.61w7.82--
8:57 PM516338.85-5.21w9.56--
7:57 PM526942.15-6.95w18.25--
6:57 PM547044.44-7.82wsw14.77--
5:57 PM576143.68-7.82wsw14.77--
4:57 PM587048.27-6.95wsw13.9--
3:57 PM606447.78-2.61ssw12.17--
2:57 PM596547.25-6.08s13.03--
1:57 PM635446.09-6.08ssw13.9--
12:57 PM655648.91-5.21s11.3--
11:57 AM616549.15-6.08s11.3--
10:57 AM596748.06-1.74e9.56--
9:57 AM577649.51-3.48ne7.82--
8:57 AM567447.83-2.61e4.34--
7:57 AM558048.94---4.34--
6:57 AM548248.63-2.61sse6.08--
5:57 AM548449.27-2.61ene6.08--
4:57 AM548649.91-2.61nne5.21--
3:57 AM549552.6---2.61--
2:57 AM529851.45-2.61w4.34--
1:57 AM519248.76-3.48w4.34--
12:57 AM509448.34---1.74--
High: 80ºf @1:57 PM    Low: 53ºf @11:57 PM     Approx. Precipitation / Rain Total: in.
Time (PDT)Temp. (ºf)Humidity (%)Dew Point (ºf)Barometer (inHG)Wind Speed (mph)Wind DirectionWind Gust (mph)1hr. Precip / Rain Total (in.)Snow Depth
11:57 PM538949.84---3.48--
10:57 PM548649.91-2.61wsw5.21--
9:57 PM567849.24-2.61wsw3.48--
8:57 PM587249.02-2.61wsw3.48--
7:57 PM616649.56-1.74sw8.69--
6:57 PM675047.74-4.34wsw11.3--
5:57 PM733745.17-6.95sw12.17--
4:57 PM773446.46-6.95wsw13.03--
3:57 PM793347.42-6.95wsw13.9--
2:57 PM793649.74-7.82sw13.03--
1:57 PM803146.62-5.21sw10.43--
12:57 PM793145.76-3.48sw10.43--
11:57 AM783346.54-1.74wsw8.69--
10:57 AM743645.34-3.48wsw6.95--
9:57 AM733745.17-0.87ese4.34--
8:57 AM664544.04-1.74se4.34--
7:57 AM624741.54-4.34ne11.3--
6:57 AM546442.1-0.87ene11.3--
5:57 AM575440.52-4.34ne9.56--
4:57 AM575641.46-3.48ene6.95--
3:57 AM585541.92-3.48ene11.3--
2:57 AM585642.39-2.61ne7.82--
1:57 AM547445.9-1.74ne3.48--
12:57 AM566845.59-1.74ene3.48--
High: 79ºf @3:57 PM    Low: 52ºf @5:57 AM     Approx. Precipitation / Rain Total: in.
Time (PDT)Temp. (ºf)Humidity (%)Dew Point (ºf)Barometer (inHG)Wind Speed (mph)Wind DirectionWind Gust (mph)1hr. Precip / Rain Total (in.)Snow Depth
11:57 PM547947.63---2.61--
10:57 PM586445.89-0.87nw7.82--
9:57 PM596045.13-1.74nne4.34--
8:57 PM606246.94-0.87wsw5.21--
7:57 PM634541.32-0.87w6.08--
6:57 PM713138.83-4.34w11.3--
5:57 PM752637.78-6.95w13.9--
4:57 PM782640.32-7.82wsw13.03--
3:57 PM792540.15-6.08wsw13.9--
2:57 PM792742.14-5.21w10.43--
1:57 PM783044.03-5.21wsw11.3--
12:57 PM753343.93-5.21sw10.43--
11:57 AM733644.45-3.48w6.95--
10:57 AM704245.84-0.87s6.95--
9:57 AM674746.1-1.74n4.34--
8:57 AM634943.53-0.87se4.34--
7:57 AM575741.92-3.48nne8.69--
6:57 AM526540.6-5.21n12.17--
5:57 AM526942.15-3.48ne10.43--
4:57 AM536641.95-3.48ne9.56--
3:57 AM536641.95-3.48ne9.56--
2:57 AM536943.1-3.48ne8.69--
1:57 AM546944.06-4.34ne10.43--
12:57 AM547546.26-4.34ene6.95--
High: 73ºf @2:57 PM    Low: 48ºf @6:57 AM     Approx. Precipitation / Rain Total: in.
Time (PDT)Temp. (ºf)Humidity (%)Dew Point (ºf)Barometer (inHG)Wind Speed (mph)Wind DirectionWind Gust (mph)1hr. Precip / Rain Total (in.)Snow Depth
11:57 PM547746.95-1.74ene5.21--
10:57 PM547646.61-0.87ne4.34--
9:57 PM557346.5---3.48--
8:57 PM557647.57-0.87ne3.48--
7:57 PM586345.47-2.61ssw9.56--
6:57 PM635144.58-5.21w13.9--
5:57 PM664644.62-7.82wsw13.9--
4:57 PM704245.84-7.82wsw16.51--
3:57 PM724147-6.95wsw15.64--
2:57 PM733845.88-6.08sw13.03--
1:57 PM704044.56-3.48ssw10.43--
12:57 PM684344.66-4.34wnw9.56--
11:57 AM664644.62-1.74wsw7.82--
10:57 AM644944.45-1.74ssw6.08--
9:57 AM625445.16-1.74s6.08--
8:57 AM586044.19-2.61e8.69--
7:57 AM526741.39-5.21ne10.43--
6:57 AM487640.8-5.21ne13.03--
5:57 AM487741.14-5.21ne9.56--
4:57 AM497842.44-2.61ene8.69--
3:57 AM497842.44-4.34ne8.69--
2:57 AM498243.75-1.74ne6.08--
1:57 AM517744.05-2.61ne6.95--
12:57 AM527644.67-3.48nne6.95--
High: 56ºf @6:57 PM    Low: 51ºf @11:57 PM     Approx. Precipitation / Rain Total: in.
Time (PDT)Temp. (ºf)Humidity (%)Dew Point (ºf)Barometer (inHG)Wind Speed (mph)Wind DirectionWind Gust (mph)1hr. Precip / Rain Total (in.)Snow Depth
11:57 PM517744.05-3.48nne7.82--
10:57 PM517844.38-2.61ne6.95--
9:57 PM517443.01-3.48nne6.95--
8:57 PM527945.69-2.61e6.95--
7:57 PM537143.85-2.61e7.82--
6:57 PM566343.58-1.74ese6.95--
Past Weather Disclaimer Note regarding "Approx. Precipitation / Rain Total"

Currently

Partly Cloudy 63°F
30.02in
Barometer
64%
Humidity
Southwest 9.2mph
Wind
Partly Cloudy

Past Weather Nearby

More Local Information

Bookmark and Share